Galesburg, IL

1:50 AM CDT on March 29, 2017 (GMT -0500)
Galesburg Municipal

Weather History for KGBG - January, 2013

Change the Weather History Date:

Monday, January 7, 2013

  Actual Average Record
Temperature  
Mean Temperature 28 °F -  
Max Temperature 39 °F 26 °F 64 °F (2008)
Min Temperature 16 °F 10 °F -17 °F (1968)
Degree Days  
Heating Degree Days 38    
Moisture  
Dew Point 22 °F    
Average Humidity 79    
Maximum Humidity 91    
Minimum Humidity 58    
Precipitation  
Precipitation 0.00 in - - ()
Sea Level Pressure  
Sea Level Pressure 30.19 in    
Wind  
Wind Speed 8 mph (South)    
Max Wind Speed 17 mph    
Max Gust Speed 24 mph    
Visibility 10 miles    
Events      
Averages and records for this station are not official NWS values.
T = Trace of Precipitation, MM = Missing Value Source: NWS Daily Summary

Daily Weather History Graph

Daily Weather History Graph

Search for Another Location

Airport or City:

Trip Planner

Search our weather history database for the weather conditions in past years. The results will help you decide how hot, cold, wet, or windy it might be!

Date:

Astronomy

Jan. 07, 2013 Rise Set
Actual Time 7:26 AM CST 4:50 PM CST
Civil Twilight 6:55 AM CST 5:20 PM CST
Nautical Twilight 6:21 AM CST 5:55 PM CST
Astronomical Twilight 5:48 AM CST 6:28 PM CST
Moon 2:49 AM CST (1/7) 1:01 PM CST (1/7)
Length of Visible Light 10h 25m
Length of Day
9h 23m
Waning Crescent, 22% of the Moon is Illuminated
Jan 7
Waning Crescent
Jan 11
New
Jan 18
First Quarter
Jan 26
Full
Feb 3
Last Quarter

Hourly Weather History & Observations

Time (CST) Temp. Windchill Dew Point Humidity Pressure Visibility Wind Dir Wind Speed Gust Speed Precip Events Conditions
12:15 AM 17.8 °F 12.5 °F 14.5 °F 87% 30.31 in 10.0 mi SSE 3.5 mph - N/A   Clear
12:35 AM 18.3 °F 13.1 °F 14.9 °F 86% 30.31 in 10.0 mi South 3.5 mph - N/A   Clear
12:55 AM 18.5 °F 13.3 °F 15.1 °F 86% 30.30 in 10.0 mi South 3.5 mph - N/A   Clear
1:15 AM 18.1 °F 12.9 °F 14.9 °F 87% 30.31 in 10.0 mi South 3.5 mph - N/A   Clear
1:35 AM 17.6 °F - 14.7 °F 88% 30.31 in 10.0 mi Calm Calm - N/A   Clear
1:55 AM 17.6 °F 12.3 °F 14.7 °F 88% 30.31 in 10.0 mi South 3.5 mph - N/A   Clear
2:15 AM 17.4 °F 9.1 °F 14.7 °F 89% 30.31 in 10.0 mi SSE 5.8 mph - N/A   Clear
2:35 AM 17.8 °F 9.6 °F 15.1 °F 89% 30.31 in 10.0 mi South 5.8 mph - N/A   Clear
2:55 AM 17.4 °F 10.4 °F 14.9 °F 90% 30.31 in 10.0 mi SSE 4.6 mph - N/A   Clear
3:15 AM 16.9 °F 9.8 °F 14.7 °F 91% 30.31 in 10.0 mi South 4.6 mph - N/A   Clear
3:35 AM 17.2 °F 8.9 °F 14.7 °F 90% 30.31 in 10.0 mi South 5.8 mph - N/A   Clear
3:55 AM 18.0 °F 9.8 °F 15.4 °F 90% 30.31 in 10.0 mi South 5.8 mph - N/A   Clear
4:15 AM 18.1 °F 10.0 °F 15.6 °F 90% 30.31 in 10.0 mi SSE 5.8 mph - N/A   Clear
4:35 AM 18.3 °F 8.2 °F 15.8 °F 90% 30.30 in 10.0 mi South 8.1 mph - N/A   Clear
4:55 AM 18.5 °F 8.4 °F 16.2 °F 91% 30.29 in 10.0 mi SSE 8.1 mph - N/A   Clear
5:15 AM 19.9 °F 9.3 °F 17.2 °F 89% 30.28 in 10.0 mi South 9.2 mph - N/A   Clear
5:35 AM 19.9 °F 10.1 °F 17.2 °F 89% 30.28 in 10.0 mi SSE 8.1 mph - N/A   Clear
5:55 AM 19.8 °F 10.8 °F 16.9 °F 89% 30.28 in 10.0 mi SSE 6.9 mph - N/A   Clear
6:15 AM 19.4 °F 11.5 °F 16.9 °F 90% 30.28 in 10.0 mi SSE 5.8 mph - N/A   Clear
6:35 AM 19.4 °F 10.4 °F 16.9 °F 90% 30.27 in 10.0 mi SSE 6.9 mph - N/A   Clear
6:55 AM 20.5 °F 10.8 °F 17.6 °F 89% 30.27 in 10.0 mi South 8.1 mph - N/A   Clear
7:15 AM 21.2 °F 10.1 °F 18.1 °F 88% 30.27 in 10.0 mi SSE 10.4 mph - N/A   Clear
7:35 AM 21.4 °F 11.1 °F 18.1 °F 87% 30.27 in 10.0 mi SSE 9.2 mph - N/A   Clear
7:55 AM 21.9 °F 11.7 °F 18.5 °F 87% 30.27 in 10.0 mi SSE 9.2 mph - N/A   Clear
8:15 AM 23.0 °F 11.1 °F 19.2 °F 85% 30.26 in 10.0 mi SSE 12.7 mph - N/A   Clear
8:35 AM 23.9 °F 12.9 °F 19.8 °F 84% 30.26 in 10.0 mi South 11.5 mph - N/A   Clear
8:55 AM 25.9 °F 16.6 °F 20.8 °F 81% 30.26 in 10.0 mi South 9.2 mph - N/A   Clear
9:15 AM 28.2 °F 17.7 °F 21.7 °F 77% 30.25 in 10.0 mi South 12.7 mph 20.7 mph N/A   Clear
9:35 AM 30.0 °F 18.7 °F 22.5 °F 73% 30.25 in 10.0 mi South 16.1 mph - N/A   Clear
9:55 AM 31.3 °F 20.7 °F 22.8 °F 71% 30.26 in 10.0 mi South 15.0 mph 23.0 mph N/A   Clear
10:15 AM 32.2 °F 21.1 °F 22.5 °F 67% 30.25 in 10.0 mi South 17.3 mph 24.2 mph N/A   Clear
10:35 AM 33.3 °F 23.2 °F 22.3 °F 64% 30.25 in 10.0 mi South 15.0 mph 23.0 mph N/A   Clear
10:55 AM 34.7 °F 24.3 °F 22.3 °F 61% 30.24 in 10.0 mi South 17.3 mph 24.2 mph N/A   Clear
11:15 AM 34.9 °F 25.3 °F 22.6 °F 61% 30.22 in 10.0 mi South 15.0 mph 21.9 mph N/A   Clear
11:35 AM 35.2 °F 26.2 °F 22.8 °F 61% 30.20 in 10.0 mi South 13.8 mph 23.0 mph N/A   Clear
11:55 AM 35.6 °F 26.6 °F 23.5 °F 62% 30.18 in 10.0 mi South 13.8 mph 21.9 mph N/A   Clear
12:15 PM 36.9 °F 27.5 °F 24.3 °F 60% 30.17 in 10.0 mi South 16.1 mph 20.7 mph N/A   Clear
12:35 PM 37.8 °F 28.6 °F 24.1 °F 58% 30.16 in 10.0 mi South 16.1 mph 23.0 mph N/A   Clear
12:55 PM 37.4 °F 28.2 °F 24.8 °F 60% 30.15 in 10.0 mi South 16.1 mph 21.9 mph N/A   Clear
1:15 PM 38.7 °F 30.5 °F 25.2 °F 58% 30.15 in 10.0 mi South 13.8 mph - N/A   Clear
1:35 PM 37.9 °F 29.2 °F 25.2 °F 60% 30.14 in 10.0 mi South 15.0 mph 21.9 mph N/A   Clear
1:55 PM 38.5 °F 29.6 °F 25.7 °F 60% 30.14 in 10.0 mi South 16.1 mph 20.7 mph N/A   Clear
2:15 PM 38.5 °F 29.9 °F 26.4 °F 62% 30.13 in 10.0 mi South 15.0 mph - N/A   Clear
2:35 PM 39.2 °F 32.0 °F 26.6 °F 61% 30.13 in 10.0 mi South 11.5 mph 17.3 mph N/A   Clear
2:55 PM 38.5 °F 31.1 °F 27.3 °F 64% 30.12 in 10.0 mi South 11.5 mph 16.1 mph N/A   Clear
3:15 PM 38.8 °F 31.2 °F 26.8 °F 62% 30.12 in 10.0 mi South 12.7 mph - N/A   Clear
3:35 PM 38.3 °F 30.9 °F 27.3 °F 65% 30.11 in 10.0 mi South 11.5 mph 18.4 mph N/A   Clear
3:55 PM 37.4 °F 30.3 °F 27.7 °F 68% 30.11 in 10.0 mi South 10.4 mph - N/A   Clear
4:15 PM 36.7 °F 29.9 °F 27.5 °F 69% 30.11 in 10.0 mi South 9.2 mph - N/A   Clear
4:35 PM 36.0 °F 29.6 °F 27.5 °F 71% 30.11 in 10.0 mi South 8.1 mph - N/A   Clear
4:55 PM 35.6 °F 29.2 °F 28.4 °F 75% 30.10 in 10.0 mi South 8.1 mph - N/A   Clear
5:15 PM 35.1 °F 27.4 °F 28.4 °F 77% 30.10 in 10.0 mi South 10.4 mph - N/A   Clear
5:35 PM 34.7 °F 28.1 °F 28.2 °F 77% 30.10 in 10.0 mi South 8.1 mph - N/A   Clear
5:55 PM 34.7 °F 28.1 °F 28.2 °F 77% 30.09 in 10.0 mi South 8.1 mph - N/A   Clear
6:15 PM 34.3 °F 28.4 °F 28.0 °F 78% 30.10 in 10.0 mi South 6.9 mph - N/A   Clear
6:35 PM 34.0 °F 28.0 °F 28.0 °F 79% 30.09 in 10.0 mi South 6.9 mph - N/A   Clear
6:55 PM 32.9 °F 27.5 °F 27.5 °F 81% 30.09 in 10.0 mi South 5.8 mph - N/A   Clear
7:15 PM 32.5 °F 26.2 °F 27.7 °F 82% 30.09 in 10.0 mi SSE 6.9 mph - N/A   Clear
7:35 PM 32.4 °F 26.0 °F 27.9 °F 83% 30.09 in 10.0 mi South 6.9 mph - N/A   Clear
7:55 PM 32.4 °F 26.0 °F 28.0 °F 84% 30.09 in 10.0 mi SSE 6.9 mph - N/A   Clear
8:15 PM 32.2 °F 26.7 °F 27.9 °F 84% 30.09 in 10.0 mi South 5.8 mph - N/A   Clear
8:35 PM 32.2 °F 25.8 °F 27.9 °F 84% 30.09 in 10.0 mi South 6.9 mph - N/A   Clear
8:55 PM 32.0 °F 25.6 °F 27.9 °F 85% 30.09 in 10.0 mi SSE 6.9 mph - N/A   Clear
9:15 PM 32.0 °F 25.6 °F 27.7 °F 84% 30.09 in 10.0 mi SSE 6.9 mph - N/A   Clear
9:35 PM 31.6 °F 26.0 °F 27.5 °F 85% 30.09 in 10.0 mi SSE 5.8 mph - N/A   Clear
9:55 PM 31.1 °F 26.4 °F 27.3 °F 86% 30.09 in 10.0 mi SSE 4.6 mph - N/A   Clear
10:15 PM 30.9 °F 25.2 °F 27.1 °F 86% 30.09 in 10.0 mi South 5.8 mph - N/A   Clear
10:35 PM 30.6 °F 23.8 °F 27.1 °F 87% 30.09 in 7.0 mi SSE 6.9 mph - N/A   Clear
10:55 PM 30.0 °F 25.2 °F 26.6 °F 87% 30.10 in 7.0 mi SSE 4.6 mph - N/A   Clear
11:15 PM 29.7 °F 23.7 °F 26.4 °F 88% 30.09 in 7.0 mi SSE 5.8 mph - N/A   Clear
11:35 PM 29.3 °F 23.2 °F 26.2 °F 88% 30.09 in 7.0 mi SSE 5.8 mph - N/A   Clear
11:55 PM 29.3 °F 24.3 °F 26.1 °F 88% 30.09 in 7.0 mi SSE 4.6 mph - N/A   Clear